Estación de El Carmen

Ultimos registro cada 15 minutos 86
Estación Fecha / Hora Temperatura Humedad Lluvia Velocidad Dirección Radiación Presion
86 El Carmen 08-05-2026 21:15 10,3 90,8 0 2 143 0,6 977,7
85 El Carmen 08-05-2026 21:00 10,3 90,4 0 2,5 147 0,6 977,4
84 El Carmen 08-05-2026 20:45 10,6 89,9 0 3 156 0,6 977
83 El Carmen 08-05-2026 20:30 10,8 89,2 0 3 156 0,6 976,8
82 El Carmen 08-05-2026 20:15 10,9 88,5 0 2,5 156 0,6 977
81 El Carmen 08-05-2026 20:00 11 88 0 2,5 156 0,6 976,7
80 El Carmen 08-05-2026 19:45 11,2 86,3 0 3 153 0,6 976,6
79 El Carmen 08-05-2026 19:30 11,4 84,7 0 2,5 150 0,6 976,4
78 El Carmen 08-05-2026 19:15 11,5 81,8 0 1 138 0,6 976,3
77 El Carmen 08-05-2026 19:00 10,7 82,5 0 0 145 0,6 976,3
76 El Carmen 08-05-2026 18:45 10,8 81,2 0 0 149 0,6 976,2
75 El Carmen 08-05-2026 18:30 11,1 79,5 0 0 149 0,6 976,2
74 El Carmen 08-05-2026 18:15 12,2 75,9 0 0 150 0,6 976,1
73 El Carmen 08-05-2026 18:00 12,6 74 0 0 154 1,9 976
72 El Carmen 08-05-2026 17:45 13,6 70,9 0 0 154 5,6 976,1
71 El Carmen 08-05-2026 17:30 14,8 67,9 0 0,5 154 11,9 976,4
70 El Carmen 08-05-2026 17:15 15,2 66,6 0 0,5 157 11,9 976,3
69 El Carmen 08-05-2026 17:00 15,6 64,6 0 0,5 164 14,4 976,3
68 El Carmen 08-05-2026 16:45 16,1 60,9 0 1 156 15,6 976,3
67 El Carmen 08-05-2026 16:30 16,3 58,5 0 0,5 142 18,1 976,3
66 El Carmen 08-05-2026 16:15 16,6 54,8 0 1,5 161 21,9 976,5
65 El Carmen 08-05-2026 16:00 16,9 52,5 0 1,5 156 29,4 976,5
64 El Carmen 08-05-2026 15:45 17,7 52,5 0 1,5 154 28,1 976,5
63 El Carmen 08-05-2026 15:30 17,7 52,2 0 1 157 325,6 976,4
62 El Carmen 08-05-2026 15:15 18 54,2 0 1 142 348,1 976,4
61 El Carmen 08-05-2026 15:00 17,8 53,7 0 1 133 384,4 976,5
60 El Carmen 08-05-2026 14:45 17,8 51,3 0 1 145 401,9 976,5
59 El Carmen 08-05-2026 14:30 17,7 50,4 0 0,5 132 425,6 976,6
58 El Carmen 08-05-2026 14:15 17,6 48,7 0 1 142 445,6 976,7
57 El Carmen 08-05-2026 14:00 17,4 50,1 0 1 161 461,9 977
56 El Carmen 08-05-2026 13:45 17,7 53,7 0 1 159 474,4 977,2
55 El Carmen 08-05-2026 13:30 17,6 50,4 0 0,5 149 486,9 977,2
54 El Carmen 08-05-2026 13:15 17,2 53,4 0 0,5 152 495,6 977,4
53 El Carmen 08-05-2026 13:00 17,5 55,6 0 0 164 499,4 977,7
52 El Carmen 08-05-2026 12:45 16,1 57,4 0 0 154 499,4 977,9
51 El Carmen 08-05-2026 12:30 16,5 56,1 0 0 142 500,6 977,9
50 El Carmen 08-05-2026 12:15 16 60,3 0 0 125 493,1 978,2
49 El Carmen 08-05-2026 12:00 15 63,9 0 0 142 484,4 978,4
48 El Carmen 08-05-2026 11:45 15,1 65,8 0 0 142 473,1 978,4
47 El Carmen 08-05-2026 11:30 14 67,3 0 0 122 458,1 978,5
46 El Carmen 08-05-2026 11:15 13,8 70,2 0 0 102 439,4 978,8
45 El Carmen 08-05-2026 11:00 13,3 71,8 0 0 90 418,1 978,8
44 El Carmen 08-05-2026 10:45 12,6 75,7 0 0 88 394,4 979
43 El Carmen 08-05-2026 10:30 12 75,8 0 0 100 370,6 979,2
42 El Carmen 08-05-2026 10:15 11,5 78,9 0 0 117 343,1 979,3
41 El Carmen 08-05-2026 10:00 10,6 79,7 0 0 125 311,9 979,2
40 El Carmen 08-05-2026 09:45 9,9 84,9 0 0 133 280,6 979,5
39 El Carmen 08-05-2026 09:30 8,9 86,9 0 0 132 244,4 979,3
38 El Carmen 08-05-2026 09:15 8,4 89,9 0 0 132 49,4 979,2
37 El Carmen 08-05-2026 09:00 6,5 91,9 0 0 135 124,4 979,7
36 El Carmen 08-05-2026 08:45 6,1 94,7 0 0 143 111,9 979,8
35 El Carmen 08-05-2026 08:30 4,9 95,5 0 0 133 19,4 979,4
34 El Carmen 08-05-2026 08:15 4 96,2 0 0 104 83,1 979,2
33 El Carmen 08-05-2026 08:00 2,1 95,8 0 0 93 16,9 979,2
32 El Carmen 08-05-2026 07:45 2,6 95,5 0 0 91 6,9 979,4
31 El Carmen 08-05-2026 07:30 3,2 95,7 0 0 102 3,1 979
30 El Carmen 08-05-2026 07:15 1,9 95,2 0 0 102 0,6 979,3
29 El Carmen 08-05-2026 07:00 2,9 95,1 0 0 104 0,6 979,5
28 El Carmen 08-05-2026 06:45 3,7 94,9 0 0 115 0,6 979,8
27 El Carmen 08-05-2026 06:30 3,7 94,7 0 0 118 0,6 980
26 El Carmen 08-05-2026 06:15 4,1 94,7 0 0 105 0,6 980,3
25 El Carmen 08-05-2026 06:00 4 94,5 0 0 107 0,6 980,3
24 El Carmen 08-05-2026 05:45 4 94 0 0 110 0,6 980
23 El Carmen 08-05-2026 05:30 4,4 93,8 0 0 110 0,6 980,1
22 El Carmen 08-05-2026 05:15 4,5 93,6 0 0 112 0,6 979,9
21 El Carmen 08-05-2026 05:00 4,4 93,6 0 0 119 0,6 979,7
20 El Carmen 08-05-2026 04:45 4,5 93,6 0 0 119 0,6 979,8
19 El Carmen 08-05-2026 04:30 4,7 93 0 0 126 0,6 979,6
18 El Carmen 08-05-2026 04:15 5,1 92,4 0 0,5 142 0,6 979,8
17 El Carmen 08-05-2026 04:00 5,1 93 0 0,5 124 0,6 980
16 El Carmen 08-05-2026 03:45 5 93,1 0 0 129 0,6 980,1
15 El Carmen 08-05-2026 03:30 5,2 93,1 0 0 131 0,6 980,3
14 El Carmen 08-05-2026 03:15 4,8 93,9 0 0 121 0,6 980,5
13 El Carmen 08-05-2026 03:00 4,9 93,7 0 0 119 0,6 980,7
12 El Carmen 08-05-2026 02:45 4,9 93,5 0 0 111 0,6 980,4
11 El Carmen 08-05-2026 02:30 5 93,5 0 0 110 0,6 980,7
10 El Carmen 08-05-2026 02:15 5,1 93,4 0 0 111 0,6 980,7
9 El Carmen 08-05-2026 02:00 5,1 93,1 0 0 115 0,6 980,9
8 El Carmen 08-05-2026 01:45 5,2 92,5 0 0 121 0,6 981
7 El Carmen 08-05-2026 01:30 5,9 92,6 0 0 121 0,6 981,4
6 El Carmen 08-05-2026 01:15 5,5 92,1 0 0 121 0,6 981,5
5 El Carmen 08-05-2026 01:00 5,7 91,4 0 0 121 0,6 981,8
4 El Carmen 08-05-2026 00:45 6,5 90,2 0 0 125 0,6 981,6
3 El Carmen 08-05-2026 00:30 6,6 89,9 0 0 128 0,6 981,4
2 El Carmen 08-05-2026 00:15 7,1 88,7 0 0 128 0,6 982,1
1 El Carmen 08-05-2026 00:00 7,9 87,7 0 0 135 0,6 981,7